Weather History for Tekamah, NE

Change the Weather History Date:

Monday, January 3, 2011

  Actual Average Record
Temperature  
Mean Temperature 26 °F -  
Max Temperature 37 °F 30 °F 60 °F (1964)
Min Temperature 15 °F 11 °F -15 °F (1968)
Degree Days  
Heating Degree Days 39    
Moisture  
Dew Point 16 °F    
Average Humidity 74    
Maximum Humidity 88    
Minimum Humidity 62    
Precipitation  
Precipitation 0.00 in - - ()
Sea Level Pressure  
Sea Level Pressure 30.08 in    
Wind  
Wind Speed 5 mph (WSW)    
Max Wind Speed 21 mph    
Max Gust Speed 28 mph    
Visibility 10 miles    
Events      
Averages and records for this station are not official NWS values.
T = Trace of Precipitation, MM = Missing Value Source: NWS Daily Summary

Daily Weather History Graph

Daily Weather History Graph

Search for Another Location

Airport:

Trip Planner

Search our weather history database for the weather conditions in past years. The results will help you decide how hot, cold, wet, or windy it might be!

Date:

Astronomy

Jan. 03, 2011 Rise Set
Actual Time 7:52 AM CST 5:06 PM CST
Civil Twilight 7:20 AM CST 5:37 PM CST
Nautical Twilight 6:45 AM CST 6:12 PM CST
Astronomical Twilight 6:12 AM CST 6:46 PM CST
Moon 7:18 AM CST (1/3) 4:38 PM CST (1/3)
Length of Visible Light 10h 16m
Length of Day
9h 14m
Waning Crescent, 0% of the Moon is Illuminated
Jan 3
Waning Crescent
Jan 4
New
Jan 12
First Quarter
Jan 19
Full
Jan 26
Last Quarter

Hourly Weather History & Observations

Time (CST) Temp. Windchill Dew Point Humidity Pressure Visibility Wind Dir Wind Speed Gust Speed Precip Events Conditions
12:54 AM 19.9 °F - 12.0 °F 71% 30.05 in 10.0 mi Calm Calm - N/A   Clear
1:54 AM 17.1 °F 11.7 °F 10.9 °F 77% 30.06 in 10.0 mi SSE 3.5 mph - N/A   Clear
2:54 AM 19.9 °F 12.1 °F 12.0 °F 71% 30.07 in 10.0 mi SW 5.8 mph - N/A   Clear
3:54 AM 19.0 °F - 12.0 °F 74% 30.06 in 10.0 mi Calm Calm - N/A   Clear
4:54 AM 18.0 °F 12.7 °F 14.0 °F 84% 30.05 in 10.0 mi SE 3.5 mph - N/A   Clear
5:54 AM 16.0 °F - 12.9 °F 88% 30.04 in 10.0 mi Calm Calm - N/A   Clear
6:54 AM 15.1 °F 9.4 °F 10.0 °F 80% 30.05 in 10.0 mi South 3.5 mph - N/A   Clear
7:54 AM 17.1 °F 10.0 °F 12.9 °F 84% 30.06 in 10.0 mi South 4.6 mph - N/A   Overcast
8:54 AM 19.9 °F 13.4 °F 14.0 °F 78% 30.06 in 10.0 mi South 4.6 mph - N/A   Mostly Cloudy
9:54 AM 21.9 °F 17.2 °F 16.0 °F 78% 30.07 in 10.0 mi South 3.5 mph - N/A   Partly Cloudy
10:54 AM 26.1 °F 20.5 °F 18.0 °F 71% 30.07 in 10.0 mi SSE 4.6 mph - N/A   Clear
11:54 AM 28.9 °F 21.9 °F 19.9 °F 69% 30.05 in 10.0 mi SSE 6.9 mph - N/A   Partly Cloudy
12:54 PM 32.0 °F 27.5 °F 21.9 °F 66% 30.01 in 10.0 mi South 4.6 mph - N/A   Scattered Clouds
1:54 PM 36.0 °F - 24.1 °F 62% 30.01 in 10.0 mi Calm Calm - N/A   Clear
3:54 PM 37.0 °F 31.0 °F 26.1 °F 65% 30.02 in 10.0 mi West 8.1 mph - N/A   Scattered Clouds
4:54 PM 35.1 °F 27.4 °F 25.0 °F 67% 30.05 in 10.0 mi WNW 10.4 mph - N/A   Overcast
5:54 PM 30.9 °F 19.8 °F 23.0 °F 72% 30.09 in 10.0 mi NW 16.1 mph 27.6 mph N/A   Mostly Cloudy
6:54 PM 28.0 °F 14.6 °F 18.0 °F 66% 30.13 in 10.0 mi NW 20.7 mph - N/A   Overcast
7:54 PM 23.0 °F 9.2 °F 15.1 °F 72% 30.15 in 10.0 mi NW 17.3 mph - N/A   Clear
8:54 PM 19.9 °F 6.7 °F 14.0 °F 78% 30.17 in 10.0 mi NNW 13.8 mph - N/A   Clear
9:54 PM 17.1 °F 3.0 °F 12.0 °F 81% 30.17 in 10.0 mi NW 13.8 mph - N/A   Clear
10:54 PM 16.0 °F 3.6 °F 10.0 °F 77% 30.19 in 10.0 mi NNW 10.4 mph - N/A   Clear
11:54 PM 15.1 °F 1.8 °F 9.0 °F 77% 30.18 in 10.0 mi NNW 11.5 mph - N/A   Clear